Flag for U.S.A. Weather past 2 weeks in Allentown, Pennsylvania, U.S.A.

Now
89 °F

Sunny.


Feels Like: 92 °F
Forecast: 68 / 87 °F
Wind: 10 mph from Northwest

Location: Lehigh Valley International Airport

Current Time: Aug 31, 2015 at 3:00:35 PM

Latest Report: Aug 31, 2015 at 1:51 PM


Visibility: 10 mi

Pressure: 30.02 "Hg

Humidity: 46%

Dew point: 66 °F

Location of AllentownLocation

Historic Weather in Allentown — Graph

°F

Allentown temperature yesterday

Maximum temperature yesterday: 87 °F (at 1:51 PM)
Minimum temperature yesterday: 61 °F (at 5:51 AM)
Average temperature yesterday: 74 °F

Past Weeks' High & Low Weather Summary

 TemperatureHumidityPressure
High92 °F (Aug 17, 1:51 PM)94% (Aug 20, 11:59 PM)30.23 "Hg (Aug 20, 11:59 PM)
Low53 °F (Aug 28, 4:51 AM)37% (Aug 18, 4:51 PM)29.81 "Hg (Aug 24, 6:51 PM)
Average73 °F68%30.03 "Hg
* Reported Aug 16 1:51 PM — Aug 31 1:51 PM, Allentown, Weather by CustomWeather, © 2015

Note: Actual official high and low records may vary slightly from our data, if they occured in-between our weather recording intervals... More about our weather records

Advertising

Allentown weather history for previous 24 hours

 ConditionsComfort  
Time TempWeatherWind HumidityBarometerVisibility
1:51 PM
Mon, Aug 31
89 °FSunny.10 mph46%30.02 "Hg10 mi
12:51 PM87 °FPassing clouds.7 mph57%30.04 "Hg10 mi
11:51 AM84 °FSunny.9 mph61%30.06 "Hg10 mi
10:51 AM81 °FSunny.3 mph65%30.06 "Hg10 mi
9:51 AM78 °FPartly sunny.5 mph69%30.06 "Hg10 mi
8:51 AM74 °FOvercast.3 mph79%30.06 "Hg9 mi
7:51 AM72 °FOvercast.No wind87%30.06 "Hg8 mi
6:51 AM69 °FFog.No wind90%30.05 "Hg2 mi
5:51 AM69 °FFog.3 mph90%30.03 "Hg6 mi
4:51 AM71 °FOvercast.No wind87%30.03 "Hg8 mi
3:51 AM69 °FFog.No wind90%30.02 "Hg5 mi
2:51 AM69 °FFog.No wind90%30.03 "Hg5 mi
1:51 AM71 °FFog.No wind87%30.03 "Hg6 mi
12:51 AM72 °FClear.3 mph84%30.05 "Hg8 mi
11:51 PM
Sun, Aug 30
72 °FClear.No wind84%30.05 "Hg7 mi
10:51 PM73 °FClear.No wind81%30.05 "Hg8 mi
9:51 PM73 °FClear.No wind79%30.05 "Hg9 mi
8:51 PM74 °FPassing clouds.No wind74%30.04 "Hg10 mi
7:51 PM77 °FSunny.No wind66%30.02 "Hg10 mi
6:51 PM82 °FPartly sunny.7 mph53%30.02 "Hg10 mi
5:51 PM84 °FOvercast.9 mph45%30.02 "Hg10 mi
4:51 PM85 °FSunny.9 mph48%30.02 "Hg10 mi
3:51 PM87 °FSunny.9 mph45%30.03 "Hg10 mi
Weather by CustomWeather, © 2015

See weather overviewHow to use our weather pages